Time,TemperatureF,DewpointF,PressureIn,WindDirection,WindDirectionDegrees,WindSpeedMPH,WindSpeedGustMPH,Humidity,HourlyPrecipIn,Conditions,Clouds,dailyrainin,SoftwareType,DateUTC
2013-08-29 01:00:00,81.0,0.0,29.99,East,93,3.0,3.0,34,-99.99,,,-99.99,,2013-08-29 08:00:00,
2013-08-29 01:08:00,80.0,0.0,29.99,ESE,115,2.0,5.0,34,-99.99,,,-99.99,,2013-08-29 08:08:00,
2013-08-29 01:16:00,80.0,0.0,29.99,East,100,3.0,5.0,35,-99.99,,,-99.99,,2013-08-29 08:16:00,
2013-08-29 01:24:00,80.0,0.0,29.99,ENE,66,5.0,5.0,36,-99.99,,,-99.99,,2013-08-29 08:24:00,
2013-08-29 01:32:00,80.0,0.0,29.99,ENE,69,5.0,8.0,35,-99.99,,,-99.99,,2013-08-29 08:32:00,
2013-08-29 01:40:00,80.0,0.0,29.99,NNE,29,2.0,7.0,36,-99.99,,,-99.99,,2013-08-29 08:40:00,
2013-08-29 01:48:00,80.0,0.0,29.99,ENE,68,3.0,6.0,36,-99.99,,,-99.99,,2013-08-29 08:48:00,
2013-08-29 01:56:00,80.0,0.0,29.99,NNE,33,3.0,7.0,35,-99.99,,,-99.99,,2013-08-29 08:56:00,
2013-08-29 02:04:00,80.0,0.0,29.99,ENE,71,2.0,6.0,35,-99.99,,,-99.99,,2013-08-29 09:04:00,
2013-08-29 02:12:00,80.0,0.0,29.99,North,352,2.0,6.0,36,-99.99,,,-99.99,,2013-08-29 09:12:00,
2013-08-29 02:20:00,80.0,0.0,29.99,NE,49,5.0,6.0,35,-99.99,,,-99.99,,2013-08-29 09:20:00,
2013-08-29 02:28:00,80.0,0.0,29.99,NNE,32,2.0,7.0,35,-99.99,,,-99.99,,2013-08-29 09:28:00,
2013-08-29 02:36:00,80.0,0.0,29.99,NNE,30,2.0,5.0,35,-99.99,,,-99.99,,2013-08-29 09:36:00,
2013-08-29 02:44:00,80.0,0.0,29.99,NNE,33,2.0,3.0,35,-99.99,,,-99.99,,2013-08-29 09:44:00,
2013-08-29 02:52:00,79.0,0.0,29.99,North,357,2.0,5.0,36,-99.99,,,-99.99,,2013-08-29 09:52:00,
2013-08-29 03:00:00,79.0,0.0,29.99,NE,49,2.0,6.0,34,-99.99,,,-99.99,,2013-08-29 10:00:00,
2013-08-29 03:08:00,80.0,0.0,29.99,East,83,2.0,6.0,34,-99.99,,,-99.99,,2013-08-29 10:08:00,
2013-08-29 03:16:00,80.0,0.0,29.99,ENE,58,5.0,5.0,35,-99.99,,,-99.99,,2013-08-29 10:16:00,
2013-08-29 03:24:00,80.0,0.0,29.99,ENE,62,3.0,6.0,36,-99.99,,,-99.99,,2013-08-29 10:24:00,
2013-08-29 03:32:00,80.0,0.0,29.99,East,89,2.0,6.0,34,-99.99,,,-99.99,,2013-08-29 10:32:00,
2013-08-29 03:40:00,79.0,0.0,29.99,NE,52,5.0,6.0,36,-99.99,,,-99.99,,2013-08-29 10:40:00,
2013-08-29 03:48:00,78.0,0.0,29.99,NNE,26,2.0,7.0,35,-99.99,,,-99.99,,2013-08-29 10:48:00,
2013-08-29 03:56:00,78.0,0.0,29.99,NNE,24,3.0,6.0,35,-99.99,,,-99.99,,2013-08-29 10:56:00,
2013-08-29 04:04:00,79.0,0.0,29.98,NNE,28,3.0,7.0,35,-99.99,,,-99.99,,2013-08-29 11:04:00,
2013-08-29 04:12:00,79.0,0.0,29.98,NE,55,5.0,7.0,38,-99.99,,,-99.99,,2013-08-29 11:12:00,
2013-08-29 04:20:00,78.0,0.0,29.99,ENE,69,3.0,8.0,36,-99.99,,,-99.99,,2013-08-29 11:20:00,
2013-08-29 04:28:00,78.0,0.0,29.99,ENE,67,5.0,8.0,36,-99.99,,,-99.99,,2013-08-29 11:28:00,
2013-08-29 04:36:00,77.0,0.0,29.98,NE,43,3.0,6.0,36,-99.99,,,-99.99,,2013-08-29 11:36:00,
2013-08-29 04:44:00,77.0,0.0,29.98,NE,35,3.0,6.0,36,-99.99,,,-99.99,,2013-08-29 11:44:00,
2013-08-29 04:52:00,77.0,0.0,29.99,ENE,59,5.0,7.0,36,-99.99,,,-99.99,,2013-08-29 11:52:00,
2013-08-29 05:00:00,0.0,0.0,-0.01,North,0,0.0,0.0,0,-99.99,,,-99.99,,2013-08-29 12:00:00,
2013-08-29 05:08:00,77.0,0.0,29.99,NE,47,3.0,6.0,36,-99.99,,,-99.99,,2013-08-29 12:08:00,
2013-08-29 05:16:00,76.0,0.0,29.99,NE,44,1.0,7.0,37,-99.99,,,-99.99,,2013-08-29 12:16:00,
2013-08-29 05:24:00,77.0,0.0,29.99,ESE,119,2.0,3.0,38,-99.99,,,-99.99,,2013-08-29 12:24:00,
2013-08-29 05:32:00,77.0,0.0,29.99,NE,56,2.0,3.0,37,-99.99,,,-99.99,,2013-08-29 12:32:00,
2013-08-29 05:40:00,76.0,0.0,30.00,NNE,24,3.0,5.0,38,-99.99,,,-99.99,,2013-08-29 12:40:00,
2013-08-29 05:48:00,76.0,0.0,30.00,NE,54,3.0,5.0,37,-99.99,,,-99.99,,2013-08-29 12:48:00,
2013-08-29 05:56:00,76.0,0.0,30.00,ENE,68,5.0,6.0,39,-99.99,,,-99.99,,2013-08-29 12:56:00,
2013-08-29 06:04:00,76.0,0.0,30.00,East,90,2.0,6.0,38,-99.99,,,-99.99,,2013-08-29 13:04:00,
2013-08-29 06:12:00,76.0,0.0,30.01,NE,37,2.0,5.0,39,-99.99,,,-99.99,,2013-08-29 13:12:00,
2013-08-29 06:20:00,76.0,0.0,30.01,NE,50,3.0,3.0,37,-99.99,,,-99.99,,2013-08-29 13:20:00,
2013-08-29 06:28:00,76.0,0.0,30.02,NE,36,2.0,3.0,37,-99.99,,,-99.99,,2013-08-29 13:28:00,
2013-08-29 06:36:00,77.0,0.0,30.02,NE,39,2.0,3.0,37,-99.99,,,-99.99,,2013-08-29 13:36:00,
2013-08-29 06:44:00,77.0,0.0,30.03,NE,50,5.0,6.0,35,-99.99,,,-99.99,,2013-08-29 13:44:00,
2013-08-29 06:52:00,77.0,0.0,30.03,NE,48,5.0,6.0,37,-99.99,,,-99.99,,2013-08-29 13:52:00,
2013-08-29 07:00:00,76.0,0.0,30.03,East,92,3.0,6.0,39,-99.99,,,-99.99,,2013-08-29 14:00:00,
2013-08-29 07:08:00,77.0,0.0,30.03,NE,56,3.0,5.0,36,-99.99,,,-99.99,,2013-08-29 14:08:00,
2013-08-29 07:16:00,77.0,0.0,30.03,NE,43,5.0,5.0,36,-99.99,,,-99.99,,2013-08-29 14:16:00,
2013-08-29 07:24:00,78.0,0.0,30.03,ENE,58,3.0,6.0,35,-99.99,,,-99.99,,2013-08-29 14:24:00,
2013-08-29 07:32:00,78.0,0.0,30.03,NNE,19,1.0,6.0,36,-99.99,,,-99.99,,2013-08-29 14:32:00,
2013-08-29 07:52:00,80.0,0.0,30.04,NNE,13,2.0,6.0,34,-99.99,,,-99.99,,2013-08-29 14:52:00,
2013-08-29 08:00:00,80.0,0.0,30.04,NE,55,5.0,6.0,32,-99.99,,,-99.99,,2013-08-29 15:00:00,
2013-08-29 08:08:00,81.0,0.0,30.05,East,99,5.0,6.0,34,-99.99,,,-99.99,,2013-08-29 15:08:00,
2013-08-29 08:16:00,82.0,0.0,30.05,East,93,2.0,6.0,33,-99.99,,,-99.99,,2013-08-29 15:16:00,
2013-08-29 08:24:00,82.0,0.0,30.05,ESE,107,2.0,7.0,32,-99.99,,,-99.99,,2013-08-29 15:24:00,
2013-08-29 08:32:00,82.0,0.0,30.05,East,96,6.0,7.0,31,-99.99,,,-99.99,,2013-08-29 15:32:00,
2013-08-29 08:40:00,83.0,0.0,30.05,SSE,152,2.0,7.0,32,-99.99,,,-99.99,,2013-08-29 15:40:00,
2013-08-29 08:48:00,83.0,0.0,30.05,ESE,103,3.0,6.0,31,-99.99,,,-99.99,,2013-08-29 15:48:00,
2013-08-29 08:56:00,84.0,0.0,30.05,ESE,118,2.0,8.0,32,-99.99,,,-99.99,,2013-08-29 15:56:00,
2013-08-29 09:04:00,84.0,0.0,30.05,ESE,104,5.0,8.0,33,-99.99,,,-99.99,,2013-08-29 16:04:00,
2013-08-29 09:12:00,85.0,0.0,30.05,ESE,105,3.0,8.0,30,-99.99,,,-99.99,,2013-08-29 16:12:00,
2013-08-29 09:20:00,84.0,0.0,30.06,SE,135,5.0,9.0,31,-99.99,,,-99.99,,2013-08-29 16:20:00,
2013-08-29 09:28:00,84.0,0.0,30.06,SSE,155,7.0,9.0,33,-99.99,,,-99.99,,2013-08-29 16:28:00,
2013-08-29 09:36:00,85.0,0.0,30.06,SSE,148,6.0,10.0,30,-99.99,,,-99.99,,2013-08-29 16:36:00,
2013-08-29 09:44:00,85.0,0.0,30.06,SE,144,6.0,13.0,30,-99.99,,,-99.99,,2013-08-29 16:44:00,
2013-08-29 09:52:00,85.0,0.0,30.07,SSE,156,9.0,14.0,31,-99.99,,,-99.99,,2013-08-29 16:52:00,
2013-08-29 10:00:00,86.0,0.0,30.07,SSE,159,9.0,15.0,29,-99.99,,,-99.99,,2013-08-29 17:00:00,
2013-08-29 10:08:00,86.0,0.0,30.07,SSE,165,13.0,16.0,30,-99.99,,,-99.99,,2013-08-29 17:08:00,
2013-08-29 10:16:00,87.0,0.0,30.07,South,185,12.0,18.0,30,-99.99,,,-99.99,,2013-08-29 17:16:00,
2013-08-29 10:24:00,87.0,0.0,30.06,South,178,13.0,18.0,29,-99.99,,,-99.99,,2013-08-29 17:24:00,
2013-08-29 10:32:00,89.0,0.0,30.07,SSE,164,16.0,20.0,29,-99.99,,,-99.99,,2013-08-29 17:32:00,
2013-08-29 10:40:00,88.0,0.0,30.07,South,173,13.0,21.0,28,-99.99,,,-99.99,,2013-08-29 17:40:00,
2013-08-29 10:48:00,88.0,0.0,30.07,South,186,10.0,21.0,29,-99.99,,,-99.99,,2013-08-29 17:48:00,
2013-08-29 10:56:00,90.0,0.0,30.07,SSW,195,10.0,15.0,26,-99.99,,,-99.99,,2013-08-29 17:56:00,
2013-08-29 11:04:00,91.0,0.0,30.07,SSE,157,7.0,17.0,29,-99.99,,,-99.99,,2013-08-29 18:04:00,
2013-08-29 11:12:00,91.0,0.0,30.07,SSE,168,6.0,17.0,27,-99.99,,,-99.99,,2013-08-29 18:12:00,
2013-08-29 11:20:00,91.0,0.0,30.06,SSW,199,7.0,13.0,26,-99.99,,,-99.99,,2013-08-29 18:20:00,
2013-08-29 11:28:00,92.0,0.0,30.06,South,173,8.0,15.0,25,-99.99,,,-99.99,,2013-08-29 18:28:00,
2013-08-29 11:36:00,94.0,0.0,30.06,South,176,7.0,13.0,25,-99.99,,,-99.99,,2013-08-29 18:36:00,
2013-08-29 11:44:00,93.0,0.0,30.06,SSE,165,8.0,16.0,26,-99.99,,,-99.99,,2013-08-29 18:44:00,
2013-08-29 11:52:00,94.0,0.0,30.06,South,172,7.0,14.0,24,-99.99,,,-99.99,,2013-08-29 18:52:00,
2013-08-29 12:00:00,94.0,0.0,30.05,South,183,12.0,14.0,26,-99.99,,,-99.99,,2013-08-29 19:00:00,
2013-08-29 12:08:00,94.0,0.0,30.05,SSE,167,7.0,14.0,24,-99.99,,,-99.99,,2013-08-29 19:08:00,
2013-08-29 12:16:00,97.0,0.0,30.05,ESE,102,6.0,14.0,25,-99.99,,,-99.99,,2013-08-29 19:16:00,
2013-08-29 12:24:00,96.0,0.0,30.04,SSE,167,7.0,15.0,22,-99.99,,,-99.99,,2013-08-29 19:24:00,
2013-08-29 12:32:00,96.0,0.0,30.04,SE,135,5.0,15.0,24,-99.99,,,-99.99,,2013-08-29 19:32:00,
2013-08-29 12:40:00,96.0,0.0,30.04,SSW,202,8.0,18.0,23,-99.99,,,-99.99,,2013-08-29 19:40:00,
2013-08-29 12:48:00,97.0,0.0,30.04,South,189,6.0,17.0,22,-99.99,,,-99.99,,2013-08-29 19:48:00,
2013-08-29 12:56:00,98.0,0.0,30.03,SSE,151,6.0,18.0,22,-99.99,,,-99.99,,2013-08-29 19:56:00,
2013-08-29 13:04:00,96.0,0.0,30.03,WSW,250,3.0,16.0,25,-99.99,,,-99.99,,2013-08-29 20:04:00,
2013-08-29 13:12:00,97.0,0.0,30.02,South,178,7.0,23.0,23,-99.99,,,-99.99,,2013-08-29 20:12:00,
2013-08-29 13:20:00,97.0,0.0,30.02,ENE,60,0.0,20.0,22,-99.99,,,-99.99,,2013-08-29 20:20:00,
2013-08-29 13:28:00,100.0,0.0,30.02,SSE,158,15.0,15.0,20,-99.99,,,-99.99,,2013-08-29 20:28:00,
2013-08-29 13:36:00,100.0,0.0,30.02,SE,125,3.0,18.0,21,-99.99,,,-99.99,,2013-08-29 20:36:00,
2013-08-29 13:44:00,98.0,0.0,30.02,ESE,115,2.0,18.0,25,-99.99,,,-99.99,,2013-08-29 20:44:00,
2013-08-29 13:52:00,102.0,0.0,30.01,SSE,148,5.0,10.0,22,-99.99,,,-99.99,,2013-08-29 20:52:00,
2013-08-29 14:00:00,98.0,0.0,30.01,South,189,7.0,28.0,21,-99.99,,,-99.99,,2013-08-29 21:00:00,
2013-08-29 14:08:00,100.0,0.0,30.01,SSE,164,12.0,22.0,21,-99.99,,,-99.99,,2013-08-29 21:08:00,
2013-08-29 14:16:00,100.0,0.0,30.01,South,180,1.0,22.0,21,-99.99,,,-99.99,,2013-08-29 21:16:00,
2013-08-29 14:24:00,98.0,0.0,30.00,SSE,151,7.0,26.0,23,-99.99,,,-99.99,,2013-08-29 21:24:00,
2013-08-29 14:32:00,101.0,0.0,30.00,SE,144,5.0,20.0,21,-99.99,,,-99.99,,2013-08-29 21:32:00,
2013-08-29 14:40:00,101.0,0.0,30.00,SE,137,2.0,20.0,21,-99.99,,,-99.99,,2013-08-29 21:40:00,
2013-08-29 14:48:00,103.0,0.0,30.00,SE,128,9.0,17.0,21,-99.99,,,-99.99,,2013-08-29 21:48:00,
2013-08-29 14:56:00,101.0,0.0,30.00,SE,127,2.0,12.0,21,-99.99,,,-99.99,,2013-08-29 21:56:00,
2013-08-29 15:04:00,102.0,0.0,29.99,East,100,5.0,23.0,20,-99.99,,,-99.99,,2013-08-29 22:04:00,
2013-08-29 15:12:00,104.0,0.0,29.99,SSE,155,16.0,17.0,20,-99.99,,,-99.99,,2013-08-29 22:12:00,
2013-08-29 15:20:00,102.0,0.0,29.99,SSE,167,17.0,25.0,20,-99.99,,,-99.99,,2013-08-29 22:20:00,
2013-08-29 15:28:00,102.0,0.0,29.99,SE,142,12.0,25.0,20,-99.99,,,-99.99,,2013-08-29 22:28:00,
2013-08-29 15:36:00,103.0,0.0,29.99,ESE,103,5.0,17.0,21,-99.99,,,-99.99,,2013-08-29 22:36:00,
2013-08-29 15:44:00,103.0,0.0,29.98,ESE,121,8.0,16.0,19,-99.99,,,-99.99,,2013-08-29 22:44:00,
2013-08-29 15:52:00,103.0,0.0,29.98,South,177,9.0,18.0,19,-99.99,,,-99.99,,2013-08-29 22:52:00,
2013-08-29 16:00:00,101.0,0.0,29.98,SSE,157,17.0,23.0,20,-99.99,,,-99.99,,2013-08-29 23:00:00,
2013-08-29 16:08:00,102.0,0.0,29.98,SE,142,9.0,21.0,20,-99.99,,,-99.99,,2013-08-29 23:08:00,
2013-08-29 16:16:00,103.0,0.0,29.98,South,169,14.0,21.0,21,-99.99,,,-99.99,,2013-08-29 23:16:00,
2013-08-29 16:24:00,102.0,0.0,29.98,SSE,164,13.0,26.0,20,-99.99,,,-99.99,,2013-08-29 23:24:00,
2013-08-29 16:32:00,102.0,0.0,29.98,SSE,152,8.0,26.0,20,-99.99,,,-99.99,,2013-08-29 23:32:00,
2013-08-29 16:40:00,102.0,0.0,29.98,SE,145,10.0,20.0,19,-99.99,,,-99.99,,2013-08-29 23:40:00,
2013-08-29 16:48:00,102.0,0.0,29.97,SSE,160,8.0,18.0,19,-99.99,,,-99.99,,2013-08-29 23:48:00,
2013-08-29 16:56:00,100.0,0.0,29.97,SSE,161,8.0,26.0,21,-99.99,,,-99.99,,2013-08-29 23:56:00,
2013-08-29 17:04:00,101.0,0.0,29.97,SE,137,9.0,26.0,20,-99.99,,,-99.99,,2013-08-30 00:04:00,
2013-08-29 17:12:00,100.0,0.0,29.96,SE,140,9.0,17.0,21,-99.99,,,-99.99,,2013-08-30 00:12:00,
2013-08-29 17:20:00,102.0,0.0,29.96,SSE,165,15.0,17.0,21,-99.99,,,-99.99,,2013-08-30 00:20:00,
2013-08-29 17:28:00,102.0,0.0,29.96,SSE,164,18.0,18.0,21,-99.99,,,-99.99,,2013-08-30 00:28:00,
2013-08-29 17:36:00,102.0,0.0,29.96,SE,133,7.0,21.0,20,-99.99,,,-99.99,,2013-08-30 00:36:00,
2013-08-29 17:44:00,98.0,0.0,29.96,SSW,204,18.0,21.0,21,-99.99,,,-99.99,,2013-08-30 00:44:00,
2013-08-29 17:52:00,98.0,0.0,29.97,SW,216,14.0,21.0,22,-99.99,,,-99.99,,2013-08-30 00:52:00,
2013-08-29 18:00:00,99.0,0.0,29.97,SSW,204,10.0,18.0,21,-99.99,,,-99.99,,2013-08-30 01:00:00,
2013-08-29 18:08:00,99.0,0.0,29.97,SW,219,15.0,18.0,22,-99.99,,,-99.99,,2013-08-30 01:08:00,
2013-08-29 18:16:00,98.0,0.0,29.96,SSE,158,17.0,18.0,22,-99.99,,,-99.99,,2013-08-30 01:16:00,
2013-08-29 18:24:00,98.0,0.0,29.96,SSW,209,13.0,21.0,22,-99.99,,,-99.99,,2013-08-30 01:24:00,
2013-08-29 18:32:00,97.0,0.0,29.96,South,187,14.0,23.0,25,-99.99,,,-99.99,,2013-08-30 01:32:00,
2013-08-29 18:40:00,97.0,0.0,29.96,SSE,167,18.0,25.0,26,-99.99,,,-99.99,,2013-08-30 01:40:00,
2013-08-29 18:48:00,96.0,0.0,29.96,SSE,166,17.0,24.0,26,-99.99,,,-99.99,,2013-08-30 01:48:00,